Wind_Speed
5 5 5 5 5 6 5 6 7 8 8 9 9 9 9 9 9 9 8 8 8 8 8 8 7 7 7 7 7 6 6 5 5 6 5 5 5 4 4 3 2 3 3
6 6 6 5 5 6 6 6 6 7 7 9 10 10 10 9 9 9 8 8 8 8 8 8 8 7 7 7 7 6 5 5 4 5 6 5 5 4 3 2 1 2 3
6 6 6 6 7 7 7 7 7 7 8 9 10 10 10 10 10 9 9 9 9 9 9 8 8 7 7 7 7 6 5 4 5 6 6 5 4 3 3 2 2 2 2
6 6 7 7 7 7 7 7 8 8 9 9 10 11 10 10 10 10 10 9 9 9 9 8 8 8 7 7 7 6 6 5 5 5 5 4 4 3 2 2 2 2 2
7 6 7 8 8 8 7 7 8 9 9 9 10 10 9 10 10 10 9 9 8 9 8 8 8 7 7 7 7 7 6 5 4 5 5 4 4 3 2 2 2 2 3
7 7 8 9 9 9 8 8 8 8 8 8 8 9 9 9 9 9 9 8 8 8 8 7 7 6 6 7 7 7 6 5 5 5 4 4 3 3 2 2 2 2 3
8 8 8 9 9 8 8 8 9 9 9 9 8 8 8 8 9 9 9 8 8 7 7 7 6 6 5 5 5 5 5 4 4 4 3 3 3 3 2 2 3 3 3
9 9 9 9 9 9 9 9 9 9 8 8 9 9 8 8 8 9 8 8 8 7 7 7 6 5 4 4 4 4 3 3 3 3 3 3 3 3 3 3 3 3 3
10 10 10 9 9 10 9 10 10 10 9 9 9 8 8 8 9 8 7 8 8 8 7 6 5 4 4 3 3 2 2 2 3 3 4 4 4 4 4 4 4 4 4
11 11 11 10 10 10 10 9 9 10 9 9 8 8 8 8 9 8 7 7 7 7 7 6 5 4 3 3 2 1 1 2 3 4 4 5 5 5 5 5 5 5 5
11 12 11 10 10 10 10 10 9 9 8 8 7 8 7 8 8 7 6 6 6 7 6 5 5 5 4 3 2 2 2 2 2 3 4 5 5 5 5 5 6 5 5
11 11 10 10 10 10 10 10 9 9 8 7 7 7 7 6 7 7 6 6 6 6 6 5 5 5 4 3 3 3 3 2 2 2 3 5 5 5 5 5 5 5 5
11 11 10 10 10 9 9 8 8 8 7 6 6 6 6 5 6 6 6 6 5 5 6 6 6 5 5 4 4 4 4 4 4 4 4 5 6 6 5 5 5 6 6
11 11 11 11 10 9 9 8 8 7 6 6 5 5 4 4 5 5 6 6 5 5 5 6 6 5 5 5 5 5 5 5 4 4 5 6 6 6 7 7 7 7 7
11 11 11 10 10 9 8 8 8 6 5 4 5 4 3 3 3 3 5 6 6 6 6 6 6 6 6 6 6 7 6 6 6 6 6 6 7 7 8 8 8 8 8
10 11 10 10 9 9 9 8 7 6 5 4 4 3 3 2 2 3 4 5 6 6 6 7 7 7 7 7 7 7 7 7 7 7 7 8 8 9 9 8 9 9 9
10 10 9 9 8 8 8 7 7 6 5 5 4 3 2 1 2 2 3 4 4 5 6 8 8 8 8 7 7 7 7 7 8 8 9 9 9 10 9 9 9 9 9
9 9 9 8 8 7 8 8 7 6 5 5 4 3 2 1 1 2 3 3 4 5 6 7 7 7 7 7 7 7 7 8 9 9 9 10 11 10 10 10 10 10 10
8 8 8 8 8 8 8 7 6 6 5 4 4 3 3 3 2 1 2 2 3 3 4 5 5 6 6 7 8 8 9 10 10 10 10 11 11 11 11 11 11 11 12
8 8 8 8 7 7 7 7 7 6 5 4 3 3 3 3 3 3 1 2 3 3 4 4 5 6 6 7 7 8 9 10 10 10 10 11 11 11 11 11 12 12 12
6 7 7 6 6 6 6 6 6 6 5 4 4 3 3 3 3 3 2 3 3 4 4 5 6 6 7 6 7 8 9 10 10 10 10 11 11 12 12 12 11 12 13
5 6 6 6 5 5 5 5 5 5 5 5 5 4 4 3 3 2 2 3 4 5 6 6 7 8 8 9 8 8 9 10 11 11 10 11 11 11 12 13 13 13 14
4 5 5 5 5 5 5 5 5 5 5 5 4 4 4 4 3 3 3 4 4 5 6 7 8 9 9 10 9 10 10 10 10 11 11 11 12 13 13 14 14 14 14
2 3 4 5 5 5 5 4 5 5 5 5 5 5 5 4 3 4 5 5 5 5 6 8 9 9 10 10 11 11 11 11 11 11 12 12 13 14 14 14 14 14 15
1 1 3 4 4 5 5 4 5 5 5 5 5 5 5 5 4 5 6 6 6 6 7 9 10 10 10 10 11 12 13 13 12 12 12 13 13 13 13 14 13 14 15
2 2 2 3 3 4 5 5 5 5 6 6 6 6 6 6 6 6 6 7 7 8 9 10 10 11 11 12 12 12 13 13 13 13 13 13 13 13 13 13 13 14 15
Wind_Direction
77 78 83 90 96 98 104 105 119 123 125 127 130 133 134 138 136 133 136 140 138 137 141 149 150 152 158 161 154 151 156 161 169 179 182 176 178 181 190 202 200 212 214
74 76 81 88 92 98 104 114 122 119 119 126 129 129 130 136 138 136 138 141 138 137 137 144 149 148 156 155 151 151 152 156 162 176 177 177 179 175 180 186 201 220 211
75 74 82 88 92 98 100 106 115 122 125 129 129 130 131 134 136 133 136 135 130 130 132 136 141 145 149 146 146 148 149 155 164 174 176 176 174 171 184 194 204 223 221
71 74 84 87 88 91 94 100 111 116 120 125 127 130 131 130 132 132 130 132 136 136 132 132 138 139 141 149 153 156 158 154 156 172 180 175 172 178 195 206 217 226 225
68 74 85 87 89 94 98 101 109 115 117 123 129 135 134 132 135 135 136 138 138 138 138 133 130 134 144 156 158 160 160 161 162 175 178 177 175 181 199 213 218 221 228
73 76 83 86 84 93 95 97 106 111 118 124 131 139 139 139 139 139 137 134 134 132 134 135 136 139 138 151 153 156 160 168 173 172 177 183 187 191 204 213 219 224 239
81 81 86 88 88 92 95 101 103 106 114 121 131 138 143 145 146 139 136 140 139 136 137 139 141 145 146 144 149 154 159 169 171 175 186 200 201 205 209 221 233 241 253
84 86 85 90 92 95 98 104 108 106 110 115 126 134 141 145 152 143 138 142 144 140 140 144 146 144 146 147 150 160 175 186 195 206 213 212 213 225 231 239 248 258 266
85 87 88 90 93 95 102 112 114 109 110 113 117 126 138 146 155 150 147 145 145 144 143 147 148 150 157 165 170 179 190 210 223 234 231 224 224 237 245 251 257 262 268
86 85 86 88 93 98 99 108 115 115 115 113 115 123 130 140 149 153 153 150 153 155 154 157 162 168 175 187 194 201 214 240 246 241 240 240 240 245 246 248 251 256 265
88 88 85 86 92 99 102 104 110 115 114 112 116 121 126 137 146 154 152 154 161 165 167 175 181 186 191 194 203 219 232 256 256 252 242 240 243 249 252 248 248 252 264
86 84 84 85 86 91 97 104 109 113 112 110 111 112 117 129 144 157 159 163 168 173 180 187 192 194 198 207 221 238 244 247 252 250 243 245 250 256 258 255 256 263 269
83 83 85 86 88 89 92 95 107 114 113 111 110 111 119 128 142 158 168 177 184 186 191 195 200 206 215 228 238 244 255 259 257 250 252 256 259 261 257 260 266 272 276
84 83 83 85 87 88 88 91 104 113 116 116 118 123 133 140 148 163 179 187 196 205 210 209 214 215 223 235 245 250 260 260 267 258 261 258 260 259 260 264 269 274 278
83 81 81 82 80 85 86 86 91 93 103 107 121 127 137 150 164 184 198 205 211 221 226 226 231 232 233 242 246 248 256 262 266 270 263 259 263 263 263 265 270 278 283
82 81 80 78 77 78 80 82 86 82 83 109 109 108 116 132 166 200 214 217 223 229 232 237 241 239 245 250 253 252 255 260 269 266 266 262 261 262 261 264 273 280 282
82 81 78 76 74 74 75 79 83 84 90 90 106 108 108 138 179 212 220 224 227 227 234 243 243 247 252 254 253 256 261 263 274 273 272 272 269 266 267 269 272 272 276
80 78 77 75 74 75 74 74 78 80 88 89 81 74 61 98 186 232 226 225 234 240 246 249 250 246 253 256 259 263 267 270 275 276 277 279 275 271 271 273 274 274 273
74 73 73 73 73 74 72 70 71 71 77 83 70 55 40 20 16 318 257 242 248 255 258 258 253 249 255 262 268 270 273 272 275 276 279 281 282 279 278 278 276 275 273
68 67 70 72 71 67 63 61 59 59 60 64 51 43 39 21 9 2 299 253 257 268 279 278 275 273 272 275 277 277 277 276 278 278 282 284 285 282 282 282 280 278 274
63 60 61 64 65 60 56 54 50 50 51 45 29 14 18 10 7 358 331 293 281 284 288 290 287 287 288 284 283 282 281 278 277 278 280 285 285 283 283 287 288 286 282
63 58 57 56 53 51 49 45 41 39 38 32 27 16 13 9 1 345 326 315 306 293 286 290 292 287 286 289 290 291 286 283 281 279 281 284 286 286 285 286 288 290 292
66 62 55 48 43 39 35 29 29 24 18 17 18 12 5 359 351 343 329 318 311 303 294 294 296 293 287 285 288 292 292 292 288 282 280 283 288 288 287 286 287 289 290
66 70 56 44 38 31 24 20 17 15 11 5 1 360 358 353 351 340 326 323 317 310 305 303 300 298 293 287 286 289 289 289 290 283 282 283 285 286 287 285 285 287 291
349 8 37 31 27 18 11 8 2 357 353 351 350 350 352 345 336 331 332 323 319 314 313 309 306 303 299 296 295 295 292 290 291 286 282 282 283 287 286 287 287 287 290
272 299 335 3 2 360 2 360 350 340 335 341 340 344 344 338 331 323 323 324 322 318 316 311 307 303 300 300 298 298 295 294 292 287 285 284 284 285 287 288 287 290 291
Height
5864 5864 5863 5863 5863 5862 5862 5863 5863 5863 5864 5865 5867 5868 5869 5871 5873 5874 5875 5876 5877 5878 5879 5881 5882 5882 5883 5884 5885 5886 5887 5888 5889 5890 5890 5891 5892 5893 5893 5894 5894 5895 5895
5865 5864 5864 5864 5863 5863 5863 5863 5864 5864 5865 5866 5868 5869 5871 5872 5874 5875 5876 5877 5878 5879 5880 5882 5882 5883 5884 5885 5886 5887 5888 5889 5889 5890 5891 5892 5892 5893 5894 5894 5894 5895 5895
5866 5865 5865 5864 5864 5864 5864 5864 5865 5865 5866 5867 5868 5869 5872 5873 5875 5876 5876 5878 5879 5880 5881 5882 5883 5884 5885 5886 5887 5888 5888 5889 5890 5890 5891 5892 5893 5893 5894 5894 5895 5895 5895
5867 5866 5866 5865 5865 5865 5865 5865 5865 5866 5867 5868 5869 5871 5873 5874 5876 5877 5877 5879 5881 5882 5883 5884 5884 5885 5886 5887 5888 5888 5889 5890 5890 5891 5892 5892 5893 5893 5894 5894 5895 5895 5895
5867 5867 5866 5866 5866 5866 5866 5866 5867 5867 5868 5869 5871 5872 5874 5875 5877 5878 5879 5881 5882 5883 5884 5885 5885 5886 5886 5887 5887 5888 5889 5890 5891 5891 5892 5892 5893 5894 5894 5894 5895 5895 5895
5869 5868 5868 5867 5867 5867 5867 5868 5868 5869 5870 5870 5872 5873 5875 5876 5878 5879 5880 5881 5883 5884 5885 5886 5887 5887 5887 5888 5888 5889 5890 5891 5891 5891 5892 5893 5893 5894 5894 5894 5894 5895 5895
5870 5870 5869 5869 5869 5869 5869 5869 5870 5870 5871 5872 5873 5874 5876 5877 5878 5880 5881 5883 5884 5885 5885 5887 5888 5888 5888 5889 5889 5890 5890 5891 5891 5891 5892 5893 5893 5893 5894 5894 5894 5894 5894
5871 5871 5871 5871 5871 5870 5870 5870 5871 5872 5873 5873 5874 5875 5876 5878 5879 5880 5881 5883 5884 5885 5886 5887 5888 5888 5889 5890 5890 5890 5891 5891 5891 5891 5892 5892 5893 5893 5893 5894 5894 5894 5894
5873 5872 5872 5872 5872 5871 5871 5871 5873 5874 5874 5875 5875 5876 5877 5879 5880 5881 5883 5883 5885 5886 5887 5888 5888 5889 5890 5890 5891 5891 5891 5891 5890 5891 5891 5892 5892 5892 5893 5894 5894 5894 5894
5874 5874 5874 5874 5874 5873 5873 5873 5874 5875 5875 5876 5876 5877 5878 5879 5881 5882 5883 5884 5885 5886 5887 5888 5889 5890 5890 5890 5890 5890 5890 5890 5889 5889 5890 5891 5892 5892 5892 5893 5893 5893 5893
5876 5876 5875 5875 5875 5875 5875 5875 5876 5876 5877 5877 5878 5879 5879 5880 5882 5883 5884 5885 5886 5887 5888 5889 5889 5890 5890 5890 5890 5890 5890 5890 5889 5889 5889 5890 5891 5891 5891 5892 5892 5892 5892
5878 5877 5877 5877 5877 5877 5877 5877 5877 5878 5878 5879 5879 5880 5881 5881 5882 5883 5884 5885 5886 5887 5888 5888 5889 5889 5890 5890 5890 5890 5890 5890 5889 5889 5889 5890 5890 5890 5891 5891 5891 5891 5891
5880 5879 5879 5878 5878 5878 5878 5879 5879 5879 5880 5880 5881 5881 5882 5882 5883 5884 5885 5886 5886 5887 5888 5888 5889 5889 5890 5890 5890 5889 5889 5889 5889 5889 5889 5889 5889 5890 5890 5890 5890 5890 5890
5881 5881 5881 5881 5880 5880 5880 5880 5880 5881 5881 5881 5882 5882 5883 5883 5884 5885 5885 5886 5886 5887 5887 5888 5888 5888 5889 5889 5889 5889 5889 5888 5888 5888 5888 5888 5888 5889 5889 5889 5889 5888 5888
5883 5883 5883 5883 5882 5882 5882 5882 5882 5882 5882 5882 5882 5883 5883 5884 5884 5885 5885 5885 5886 5886 5886 5887 5887 5888 5888 5888 5888 5888 5888 5887 5887 5887 5887 5887 5887 5887 5887 5887 5887 5886 5886
5885 5885 5885 5884 5884 5884 5884 5883 5883 5883 5883 5883 5883 5883 5884 5884 5884 5884 5884 5885 5885 5885 5886 5886 5886 5886 5887 5886 5887 5886 5886 5886 5886 5886 5886 5886 5885 5885 5885 5885 5885 5885 5884
5887 5887 5886 5886 5886 5885 5885 5884 5884 5884 5884 5883 5883 5884 5884 5884 5884 5884 5884 5884 5884 5884 5885 5885 5885 5885 5885 5885 5885 5885 5885 5885 5884 5885 5884 5884 5883 5883 5883 5883 5883 5883 5883
5889 5888 5888 5888 5887 5886 5886 5885 5885 5885 5885 5885 5884 5884 5884 5884 5884 5884 5884 5884 5884 5883 5883 5884 5883 5883 5884 5884 5884 5883 5883 5883 5883 5883 5882 5882 5881 5881 5881 5881 5881 5881 5880
5890 5890 5889 5889 5888 5888 5887 5887 5886 5886 5886 5885 5885 5884 5884 5884 5883 5883 5883 5883 5883 5883 5882 5882 5882 5882 5882 5882 5882 5882 5882 5881 5881 5881 5880 5880 5879 5879 5879 5878 5878 5878 5878
5892 5891 5891 5890 5890 5889 5889 5888 5888 5887 5886 5886 5885 5885 5884 5884 5883 5883 5882 5882 5882 5882 5882 5882 5882 5881 5881 5881 5880 5880 5880 5879 5879 5878 5878 5878 5877 5877 5876 5875 5875 5875 5874
5893 5892 5892 5891 5891 5890 5889 5889 5888 5888 5887 5887 5886 5885 5884 5884 5883 5883 5882 5882 5882 5881 5881 5881 5881 5880 5880 5879 5879 5878 5878 5877 5877 5876 5876 5875 5875 5874 5874 5873 5873 5872 5872
5893 5893 5893 5892 5892 5891 5890 5890 5889 5888 5888 5887 5886 5885 5884 5884 5883 5883 5882 5882 5881 5881 5880 5880 5880 5879 5878 5878 5877 5876 5876 5876 5875 5874 5873 5873 5872 5872 5871 5871 5870 5870 5869
5894 5894 5893 5892 5892 5891 5891 5890 5889 5889 5888 5887 5886 5885 5884 5883 5883 5882 5882 5881 5880 5880 5879 5879 5878 5877 5877 5876 5875 5875 5874 5873 5873 5872 5871 5871 5870 5869 5868 5868 5867 5866 5866
5894 5894 5893 5893 5892 5891 5891 5890 5889 5889 5888 5887 5886 5885 5884 5883 5882 5881 5881 5880 5879 5879 5878 5877 5876 5876 5875 5874 5873 5872 5872 5871 5870 5870 5869 5868 5867 5866 5866 5865 5865 5864 5863
5894 5894 5893 5893 5892 5891 5891 5890 5889 5888 5887 5886 5885 5884 5883 5882 5881 5881 5880 5879 5878 5877 5877 5876 5874 5874 5873 5872 5871 5870 5869 5867 5867 5866 5866 5865 5864 5863 5863 5862 5861 5861 5860
5894 5893 5893 5892 5892 5891 5890 5889 5889 5888 5886 5885 5884 5884 5883 5882 5881 5880 5879 5878 5877 5876 5875 5874 5872 5871 5870 5869 5868 5867 5866 5865 5864 5863 5863 5862 5861 5860 5860 5859 5858 5857 5856